COSMOS 2251 DEB, 34615

Orbit data source: Space-Track

COSMOS 2251 DEB, 34615 is space debris in LEO originally from a launch on Wed, 16 Jun 1993 UTC launched from the Plesetsk Missile And Space Complex (PKMTR). The debris from Iridium 33, an American commercial communications satellite, has been tracked extensively since its accidental collision with the defunct Russian satellite Cosmos 2251 in 2009. This event, occurring at high speed in low Earth orbit (LEO), generated thousands of pieces of space debris, significantly increasing the risk of further collisions. The Iridium 33 debris cloud has impacted space traffic management and orbital debris mitigation strategies, making it a subject of ongoing study in space situational awareness.

Loading next visibility...
Identifier
34615, 1993-036WL
Orbit
LEO
Country
Flag of CISCIS
Related business
Manufacturer
Unknown
Mission
Spacecraft
Bus & Motor
Unknown
Mass
Unknown
Launch date (UTC)
1993-06-16 (32 years ago)
Launch vehicle
Unknown
Launch site
Plesetsk Missile And Space Complex (PKMTR)
Object type
Payload
Rocket body
Debris
Shape & HBR
Unknown shape, 0.1 m
Radar Cross Section
Small (<0.1 m²)

Expand to show TLE details & history
Last TLE update: 9 hours ago

TLE from 9 hours ago
0 COSMOS 2251 DEB
1 34615U 93036WL  25291.22430287  .00001625  00000-0  15095-2 0  9993
2 34615  74.0075  23.1791 0401427 301.4128  81.2730 13.52096921820654
Epoch: 2025-10-18T05:22Z
TLE epoch observation values (Epoch: 2025-10-18T05:22:59.767Z)
Latitude
26.16523°
Longitude
-76.47566°
Altitude
1,033.823 km
Speed
7.354 km/s
True Right ascension
02h 04m 55s
True Declination
26° 02' 04"
Sunlit
Object was in full shadow at epoch
Visualization orbit readout
Latitude
Unknown
Longitude
Unknown
Altitude
Unknown
Speed
Unknown
Apparent Right ascension
Unknown
Apparent Declination
Unknown
Sunlit
N/A
Visualization observer readout
Local Sidereal Time
09:09:55
Azimuth
Unknown
Elevation
Unknown
Doppler factor
Unknown
Orbital elements
Apogee altitude
1,360.946 km
Perigee altitude
763.59 km
Semi-major axis
7,440.405 km
Eccentricity
0.04014
Inclination
74.0075°
RAAN
23.1791°
Arg. of periapsis
301.4128°
True anomaly
85.84975°
Mean anomaly
81.273°
Eccentric anomaly
83.55849°
Mean motion
3.3818 °/min
Orbital period
106.45 mins
BSTAR
0.0015095

Documentation

Showing up to 5 results
|